Wetterdaten: Woche 30.11.20 - 06.12.20 (KW49)
Datum Zeit Temp. Aussen Temp. o. S. Temp +5cm Feuchte Auss Luftdruck Regen Sonnenschein Regendauer Solar Windben Empfang
30.11.2020 00:00 -3,1 C -3,9 C -4,3 C 92 % 1027,8 hPa 0,0 l/m 0,00 h 0,00 h 0 W/m 0,0 km/h (0 Bft) 98,94 %
30.11.2020 01:00 -3,1 C -3,7 C -4,0 C 93 % 1027,6 hPa 0,0 l/m 0,00 h 0,00 h 0 W/m 0,3 km/h (0 Bft) 98,29 %
30.11.2020 02:00 -2,7 C -2,9 C -3,4 C 94 % 1027,6 hPa 0,0 l/m 0,00 h 0,00 h 0 W/m 0,5 km/h (0 Bft) 94,63 %
30.11.2020 03:00 -2,4 C -2,6 C -2,9 C 95 % 1027,4 hPa 0,0 l/m 0,00 h 0,00 h 0 W/m 0,2 km/h (0 Bft) 95,97 %
30.11.2020 04:00 -1,7 C -1,7 C -2,0 C 95 % 1027,4 hPa 0,0 l/m 0,00 h 0,00 h 0 W/m 2,3 km/h (1 Bft) 95,63 %
30.11.2020 05:00 -0,8 C -1,0 C -1,3 C 95 % 1027,2 hPa 0,0 l/m 0,00 h 0,00 h 0 W/m 5,2 km/h (1 Bft) 97,46 %
30.11.2020 06:00 -0,5 C -0,8 C -1,1 C 95 % 1027,1 hPa 0,0 l/m 0,00 h 0,00 h 0 W/m 8,8 km/h (2 Bft) 98,09 %
30.11.2020 07:00 -0,4 C -0,6 C -1,1 C 94 % 1027,1 hPa 0,0 l/m 0,00 h 0,00 h 0 W/m 6,5 km/h (2 Bft) 98,73 %
30.11.2020 08:00 -0,3 C -0,6 C -1,1 C 94 % 1027,0 hPa 0,0 l/m 0,00 h 0,00 h 12 W/m 7,0 km/h (2 Bft) 95,30 %
30.11.2020 09:00 -0,1 C -0,6 C -0,5 C 94 % 1026,9 hPa 0,0 l/m 0,00 h 0,00 h 22 W/m 8,0 km/h (2 Bft) 97,24 %
30.11.2020 10:00 0,0 C 0,0 C -0,4 C 94 % 1026,6 hPa 0,0 l/m 0,00 h 0,00 h 49 W/m 10,0 km/h (2 Bft) 96,33 %
30.11.2020 11:00 0,1 C 0,0 C -0,1 C 93 % 1026,1 hPa 0,0 l/m 0,00 h 0,00 h 58 W/m 13,6 km/h (3 Bft) 96,68 %
30.11.2020 12:00 0,4 C 0,5 C 0,4 C 92 % 1025,2 hPa 0,0 l/m 0,07 h 0,00 h 109 W/m 19,1 km/h (3 Bft) 97,62 %
30.11.2020 13:00 1,3 C 2,2 C 2,0 C 90 % 1024,0 hPa 0,0 l/m 0,27 h 0,00 h 117 W/m 18,6 km/h (3 Bft) 94,32 %
30.11.2020 14:00 2,0 C 2,0 C 1,3 C 87 % 1023,1 hPa 0,0 l/m 0,00 h 0,00 h 26 W/m 10,8 km/h (2 Bft) 98,43 %
30.11.2020 15:00 2,3 C 1,8 C 1,1 C 87 % 1022,4 hPa 0,0 l/m 0,00 h 0,00 h 9 W/m 3,1 km/h (1 Bft) 99,36 %
30.11.2020 16:00 2,2 C 1,7 C 1,1 C 88 % 1021,6 hPa 0,0 l/m 0,00 h 0,00 h 5 W/m 3,5 km/h (1 Bft) 94,48 %
30.11.2020 17:00 2,5 C 1,8 C 1,1 C 90 % 1020,5 hPa 0,2 l/m 0,00 h 0,60 h 0 W/m 8,5 km/h (2 Bft) 98,53 %
30.11.2020 18:00 3,5 C 2,8 C 2,3 C 95 % 1019,2 hPa 1,0 l/m 0,00 h 1,00 h 0 W/m 16,3 km/h (3 Bft) 98,30 %
30.11.2020 19:00 4,2 C 3,3 C 3,1 C 97 % 1018,2 hPa 0,8 l/m 0,00 h 1,00 h 0 W/m 19,2 km/h (3 Bft) 97,37 %
30.11.2020 20:00 4,3 C 3,3 C 3,4 C 97 % 1017,4 hPa 0,6 l/m 0,00 h 0,63 h 0 W/m 27,7 km/h (4 Bft) 99,43 %
30.11.2020 21:00 4,3 C 3,4 C 3,6 C 98 % 1016,3 hPa 0,2 l/m 0,00 h 0,30 h 0 W/m 33,3 km/h (5 Bft) 94,30 %
30.11.2020 22:00 4,5 C 3,9 C 3,9 C 98 % 1015,5 hPa 0,4 l/m 0,00 h 0,20 h 0 W/m 32,0 km/h (5 Bft) 97,29 %
30.11.2020 23:00 4,5 C 3,9 C 3,9 C 98 % 1014,7 hPa 0,4 l/m 0,00 h 0,17 h 0 W/m 34,3 km/h (5 Bft) 99,15 %
01.12.2020 00:00 4,5 C 3,9 C 3,9 C 98 % 1014,0 hPa 2,2 l/m 0,00 h 0,90 h 0 W/m 30,2 km/h (5 Bft) 96,65 %
01.12.2020 01:00 4,6 C 3,9 C 4,2 C 99 % 1013,4 hPa 0,2 l/m 0,00 h 0,63 h 0 W/m 31,5 km/h (5 Bft) 98,72 %
01.12.2020 02:00 5,0 C 4,4 C 4,5 C 99 % 1013,0 hPa 0,0 l/m 0,00 h 0,80 h 0 W/m 27,7 km/h (4 Bft) 98,36 %
01.12.2020 03:00 5,3 C 4,6 C 5,0 C 99 % 1012,6 hPa 0,2 l/m 0,00 h 0,70 h 0 W/m 19,2 km/h (3 Bft) 95,40 %
01.12.2020 04:00 5,7 C 5,0 C 5,2 C 99 % 1012,5 hPa 0,2 l/m 0,00 h 0,53 h 0 W/m 12,9 km/h (3 Bft) 95,84 %
01.12.2020 05:00 6,0 C 5,3 C 5,6 C 99 % 1012,6 hPa 0,4 l/m 0,00 h 0,40 h 0 W/m 5,2 km/h (1 Bft) 95,86 %
01.12.2020 06:00 5,9 C 5,0 C 5,6 C 99 % 1012,9 hPa 0,2 l/m 0,00 h 0,00 h 0 W/m 3,3 km/h (1 Bft) 95,70 %
01.12.2020 07:00 5,9 C 5,1 C 5,6 C 99 % 1013,1 hPa 0,0 l/m 0,00 h 0,00 h 0 W/m 7,0 km/h (2 Bft) 98,65 %
01.12.2020 08:00 6,0 C 5,5 C 5,6 C 100 % 1013,6 hPa 0,0 l/m 0,00 h 0,00 h 7 W/m 4,7 km/h (1 Bft) 97,74 %
01.12.2020 09:00 6,1 C 5,7 C 6,0 C 100 % 1014,1 hPa 0,0 l/m 0,00 h 0,00 h 30 W/m 2,2 km/h (1 Bft) 96,70 %
01.12.2020 10:00 6,6 C 6,2 C 6,6 C 100 % 1014,5 hPa 0,0 l/m 0,00 h 0,10 h 54 W/m 4,7 km/h (1 Bft) 98,08 %
01.12.2020 11:00 7,0 C 6,4 C 6,7 C 100 % 1014,6 hPa 1,0 l/m 0,00 h 0,70 h 35 W/m 6,9 km/h (2 Bft) 98,15 %
01.12.2020 12:00 7,4 C 6,9 C 7,3 C 100 % 1014,8 hPa 1,2 l/m 0,00 h 0,83 h 38 W/m 12,7 km/h (3 Bft) 98,88 %
01.12.2020 13:00 7,7 C 7,1 C 7,5 C 100 % 1014,8 hPa 0,4 l/m 0,00 h 0,47 h 42 W/m 23,1 km/h (4 Bft) 96,30 %
01.12.2020 14:00 7,6 C 7,1 C 7,4 C 100 % 1015,1 hPa 0,2 l/m 0,00 h 0,37 h 22 W/m 22,1 km/h (4 Bft) 95,73 %
01.12.2020 15:00 7,5 C 6,7 C 7,2 C 100 % 1015,6 hPa 0,4 l/m 0,00 h 0,73 h 10 W/m 16,2 km/h (3 Bft) 96,87 %
01.12.2020 16:00 7,4 C 6,7 C 7,2 C 100 % 1016,0 hPa 0,2 l/m 0,00 h 0,70 h 2 W/m 17,5 km/h (3 Bft) 95,94 %
01.12.2020 17:00 7,4 C 6,7 C 7,2 C 100 % 1016,5 hPa 0,2 l/m 0,00 h 0,30 h 0 W/m 14,7 km/h (3 Bft) 97,37 %
01.12.2020 18:00 7,4 C 6,7 C 7,2 C 100 % 1017,1 hPa 0,2 l/m 0,00 h 0,07 h 0 W/m 10,9 km/h (2 Bft) 98,01 %
01.12.2020 19:00 7,4 C 6,7 C 7,2 C 100 % 1017,8 hPa 0,2 l/m 0,00 h 0,17 h 0 W/m 6,8 km/h (2 Bft) 98,23 %
01.12.2020 20:00 7,1 C 6,3 C 7,2 C 100 % 1018,6 hPa 0,4 l/m 0,00 h 0,03 h 0 W/m 1,9 km/h (1 Bft) 98,22 %
01.12.2020 21:00 6,9 C 6,1 C 7,1 C 100 % 1019,2 hPa 0,4 l/m 0,00 h 0,00 h 0 W/m 0,0 km/h (0 Bft) 98,01 %
01.12.2020 22:00 6,5 C 5,6 C 6,7 C 100 % 1019,7 hPa 1,0 l/m 0,00 h 0,10 h 0 W/m 0,0 km/h (0 Bft) 98,64 %
01.12.2020 23:00 6,3 C 5,6 C 6,7 C 100 % 1020,0 hPa 0,0 l/m 0,00 h 0,00 h 0 W/m 0,0 km/h (0 Bft) 97,92 %
02.12.2020 00:00 6,1 C 5,4 C 6,4 C 100 % 1020,2 hPa 0,0 l/m 0,00 h 0,00 h 0 W/m 0,0 km/h (0 Bft) 98,69 %
02.12.2020 01:00 5,9 C 5,0 C 6,1 C 100 % 1020,3 hPa 0,0 l/m 0,00 h 0,00 h 0 W/m 0,0 km/h (0 Bft) 98,30 %
02.12.2020 02:00 5,6 C 5,0 C 6,1 C 100 % 1020,2 hPa 0,2 l/m 0,00 h 0,07 h 0 W/m 0,0 km/h (0 Bft) 97,37 %
02.12.2020 03:00 5,5 C 5,0 C 6,1 C 100 % 1020,1 hPa 0,0 l/m 0,00 h 0,00 h 0 W/m 0,0 km/h (0 Bft) 99,44 %
02.12.2020 04:00 5,5 C 5,0 C 6,1 C 100 % 1019,9 hPa 0,0 l/m 0,00 h 0,00 h 0 W/m 0,0 km/h (0 Bft) 95,84 %
02.12.2020 05:00 5,5 C 5,0 C 6,1 C 100 % 1019,6 hPa 0,2 l/m 0,00 h 0,00 h 0 W/m 0,0 km/h (0 Bft) 98,29 %
02.12.2020 06:00 5,4 C 4,5 C 5,8 C 100 % 1019,5 hPa 0,0 l/m 0,00 h 0,17 h 0 W/m 0,0 km/h (0 Bft) 98,16 %
02.12.2020 07:00 5,2 C 4,4 C 5,6 C 100 % 1019,3 hPa 0,8 l/m 0,00 h 0,37 h 0 W/m 0,0 km/h (0 Bft) 94,31 %
02.12.2020 08:00 5,1 C 4,4 C 5,6 C 100 % 1019,1 hPa 0,4 l/m 0,00 h 0,00 h 4 W/m 0,0 km/h (0 Bft) 95,67 %
02.12.2020 09:00 5,0 C 4,1 C 5,6 C 100 % 1019,0 hPa 0,0 l/m 0,00 h 0,00 h 9 W/m 0,2 km/h (0 Bft) 96,47 %
02.12.2020 10:00 4,8 C 4,2 C 5,6 C 100 % 1018,6 hPa 0,0 l/m 0,00 h 0,00 h 19 W/m 1,0 km/h (0 Bft) 94,89 %
02.12.2020 11:00 4,8 C 4,2 C 5,6 C 100 % 1018,0 hPa 0,2 l/m 0,00 h 0,00 h 24 W/m 2,1 km/h (1 Bft) 97,44 %
02.12.2020 12:00 4,7 C 4,0 C 5,6 C 100 % 1017,2 hPa 0,0 l/m 0,00 h 0,13 h 21 W/m 0,5 km/h (0 Bft) 94,99 %
02.12.2020 13:00 4,6 C 3,9 C 5,5 C 100 % 1016,5 hPa 0,2 l/m 0,00 h 0,00 h 19 W/m 1,0 km/h (0 Bft) 97,64 %
02.12.2020 14:00 4,5 C 3,9 C 5,1 C 100 % 1015,8 hPa 0,0 l/m 0,00 h 0,00 h 13 W/m 0,3 km/h (0 Bft) 97,94 %
02.12.2020 15:00 4,4 C 3,9 C 5,0 C 100 % 1015,3 hPa 0,0 l/m 0,00 h 0,00 h 8 W/m 0,1 km/h (0 Bft) 98,79 %
02.12.2020 16:00 4,4 C 3,9 C 5,0 C 100 % 1014,8 hPa 0,0 l/m 0,00 h 0,00 h 0 W/m 0,0 km/h (0 Bft) 98,08 %
02.12.2020 17:00 4,3 C 3,6 C 5,0 C 100 % 1014,3 hPa 0,2 l/m 0,00 h 0,17 h 0 W/m 0,0 km/h (0 Bft) 98,36 %
02.12.2020 18:00 4,3 C 3,5 C 5,0 C 100 % 1013,8 hPa 0,4 l/m 0,00 h 0,70 h 0 W/m 0,2 km/h (0 Bft) 98,72 %
02.12.2020 19:00 4,1 C 3,3 C 5,0 C 99 % 1013,4 hPa 0,0 l/m 0,00 h 0,00 h 0 W/m 2,4 km/h (1 Bft) 96,87 %
02.12.2020 20:00 4,0 C 3,3 C 4,7 C 99 % 1012,9 hPa 0,2 l/m 0,00 h 0,53 h 0 W/m 3,5 km/h (1 Bft) 99,65 %
02.12.2020 21:00 3,8 C 3,1 C 4,5 C 99 % 1012,3 hPa 0,0 l/m 0,00 h 0,00 h 0 W/m 7,1 km/h (2 Bft) 95,93 %
02.12.2020 22:00 3,8 C 3,3 C 4,5 C 99 % 1011,7 hPa 0,0 l/m 0,00 h 0,00 h 0 W/m 4,9 km/h (1 Bft) 97,88 %
02.12.2020 23:00 3,7 C 2,9 C 4,5 C 99 % 1010,9 hPa 0,0 l/m 0,00 h 0,00 h 0 W/m 5,8 km/h (2 Bft) 97,99 %
03.12.2020 00:00 3,7 C 2,9 C 4,5 C 99 % 1010,3 hPa 0,0 l/m 0,00 h 0,00 h 0 W/m 5,7 km/h (1 Bft) 96,61 %
03.12.2020 01:00 3,5 C 2,8 C 4,5 C 99 % 1009,4 hPa 0,0 l/m 0,00 h 0,00 h 0 W/m 5,2 km/h (1 Bft) 98,82 %
03.12.2020 02:00 3,5 C 2,8 C 4,5 C 99 % 1008,5 hPa 0,2 l/m 0,00 h 0,17 h 0 W/m 8,4 km/h (2 Bft) 98,36 %
03.12.2020 03:00 3,6 C 3,1 C 4,5 C 100 % 1007,7 hPa 0,0 l/m 0,00 h 0,00 h 0 W/m 5,9 km/h (2 Bft) 97,86 %
03.12.2020 04:00 3,8 C 3,3 C 4,5 C 99 % 1006,8 hPa 0,0 l/m 0,00 h 0,00 h 0 W/m 4,2 km/h (1 Bft) 97,47 %
03.12.2020 05:00 3,9 C 3,3 C 4,6 C 100 % 1005,9 hPa 0,0 l/m 0,00 h 0,00 h 0 W/m 3,4 km/h (1 Bft) 98,49 %
03.12.2020 06:00 3,9 C 3,3 C 5,0 C 100 % 1005,2 hPa 0,0 l/m 0,00 h 0,00 h 0 W/m 4,5 km/h (1 Bft) 98,01 %
03.12.2020 07:00 3,9 C 3,3 C 4,7 C 99 % 1004,2 hPa 0,0 l/m 0,00 h 0,13 h 0 W/m 8,0 km/h (2 Bft) 97,92 %
03.12.2020 08:00 3,8 C 3,3 C 4,5 C 99 % 1003,6 hPa 0,0 l/m 0,00 h 0,00 h 5 W/m 11,2 km/h (2 Bft) 99,36 %
03.12.2020 09:00 3,7 C 2,9 C 4,5 C 99 % 1002,9 hPa 0,2 l/m 0,00 h 0,70 h 11 W/m 16,6 km/h (3 Bft) 96,58 %
03.12.2020 10:00 3,8 C 3,1 C 4,5 C 99 % 1002,0 hPa 0,2 l/m 0,00 h 0,67 h 33 W/m 16,4 km/h (3 Bft) 95,44 %
03.12.2020 11:00 3,9 C 3,1 C 4,7 C 98 % 1000,9 hPa 0,2 l/m 0,00 h 0,23 h 42 W/m 17,1 km/h (3 Bft) 97,42 %
03.12.2020 12:00 4,2 C 3,7 C 5,0 C 98 % 999,6 hPa 0,0 l/m 0,00 h 0,00 h 50 W/m 18,2 km/h (3 Bft) 94,06 %
03.12.2020 13:00 4,6 C 4,2 C 5,5 C 98 % 998,2 hPa 0,0 l/m 0,00 h 0,00 h 46 W/m 17,2 km/h (3 Bft) 97,43 %
03.12.2020 14:00 5,1 C 4,3 C 5,6 C 95 % 996,9 hPa 0,0 l/m 0,00 h 0,53 h 38 W/m 18,5 km/h (3 Bft) 94,72 %
03.12.2020 15:00 5,0 C 3,7 C 5,1 C 94 % 995,8 hPa 0,4 l/m 0,00 h 1,00 h 14 W/m 18,5 km/h (3 Bft) 95,07 %
03.12.2020 16:00 4,6 C 3,3 C 4,9 C 94 % 994,8 hPa 0,4 l/m 0,00 h 0,87 h 5 W/m 20,8 km/h (4 Bft) 96,66 %
03.12.2020 17:00 4,4 C 3,3 C 4,6 C 94 % 993,7 hPa 0,0 l/m 0,00 h 0,27 h 0 W/m 20,4 km/h (4 Bft) 96,58 %
03.12.2020 18:00 4,4 C 3,3 C 4,7 C 94 % 992,6 hPa 0,0 l/m 0,00 h 0,47 h 0 W/m 17,5 km/h (3 Bft) 94,91 %
03.12.2020 19:00 4,3 C 3,3 C 4,5 C 94 % 991,5 hPa 0,4 l/m 0,00 h 0,97 h 0 W/m 20,0 km/h (4 Bft) 95,80 %
03.12.2020 20:00 4,2 C 3,2 C 4,5 C 94 % 990,4 hPa 0,2 l/m 0,00 h 0,40 h 0 W/m 20,9 km/h (4 Bft) 96,48 %
03.12.2020 21:00 4,2 C 3,2 C 4,5 C 93 % 989,3 hPa 0,0 l/m 0,00 h 0,00 h 0 W/m 17,9 km/h (3 Bft) 95,73 %
03.12.2020 22:00 4,4 C 3,3 C 4,5 C 91 % 988,3 hPa 0,0 l/m 0,00 h 0,13 h 0 W/m 18,9 km/h (3 Bft) 98,05 %
03.12.2020 23:00 4,4 C 3,3 C 4,5 C 90 % 987,3 hPa 0,2 l/m 0,00 h 0,50 h 0 W/m 20,9 km/h (4 Bft) 98,29 %
04.12.2020 00:00 4,3 C 3,2 C 4,2 C 90 % 986,0 hPa 0,0 l/m 0,00 h 0,63 h 0 W/m 19,5 km/h (3 Bft) 92,67 %
04.12.2020 01:00 4,0 C 2,9 C 3,9 C 92 % 984,8 hPa 0,2 l/m 0,00 h 0,67 h 0 W/m 19,5 km/h (3 Bft) 96,47 %
04.12.2020 02:00 4,0 C 3,1 C 3,9 C 93 % 983,9 hPa 0,0 l/m 0,00 h 0,57 h 0 W/m 23,9 km/h (4 Bft) 98,72 %
04.12.2020 03:00 4,2 C 3,7 C 4,3 C 92 % 982,8 hPa 0,0 l/m 0,00 h 0,00 h 0 W/m 22,3 km/h (4 Bft) 96,27 %
04.12.2020 04:00 4,2 C 3,9 C 4,5 C 91 % 982,1 hPa 0,0 l/m 0,00 h 0,00 h 0 W/m 26,6 km/h (4 Bft) 96,06 %
04.12.2020 05:00 4,4 C 4,0 C 5,0 C 90 % 982,1 hPa 0,0 l/m 0,00 h 0,00 h 0 W/m 25,4 km/h (4 Bft) 99,72 %
04.12.2020 06:00 4,9 C 4,4 C 5,0 C 90 % 982,1 hPa 0,0 l/m 0,00 h 0,00 h 0 W/m 22,2 km/h (4 Bft) 96,91 %
04.12.2020 07:00 5,2 C 4,8 C 5,5 C 90 % 982,5 hPa 0,0 l/m 0,00 h 0,00 h 0 W/m 22,3 km/h (4 Bft) 98,80 %
04.12.2020 08:00 5,5 C 5,0 C 5,6 C 90 % 983,4 hPa 0,0 l/m 0,00 h 0,00 h 7 W/m 23,6 km/h (4 Bft) 98,08 %
04.12.2020 09:00 5,9 C 5,7 C 6,1 C 91 % 984,1 hPa 0,0 l/m 0,00 h 0,00 h 22 W/m 22,2 km/h (4 Bft) 93,95 %
04.12.2020 10:00 6,6 C 6,8 C 7,3 C 91 % 984,7 hPa 0,0 l/m 0,00 h 0,00 h 69 W/m 18,6 km/h (3 Bft) 98,88 %
04.12.2020 11:00 7,6 C 8,5 C 8,1 C 88 % 985,3 hPa 0,0 l/m 0,20 h 0,00 h 111 W/m 20,4 km/h (4 Bft) 98,81 %
04.12.2020 12:00 8,0 C 8,7 C 9,2 C 85 % 985,5 hPa 0,0 l/m 0,20 h 0,00 h 130 W/m 24,2 km/h (4 Bft) 96,98 %
04.12.2020 13:00 8,4 C 8,2 C 8,3 C 80 % 985,8 hPa 0,0 l/m 0,00 h 0,00 h 83 W/m 19,2 km/h (3 Bft) 96,18 %
04.12.2020 14:00 8,3 C 8,3 C 8,1 C 80 % 986,1 hPa 0,0 l/m 0,20 h 0,00 h 91 W/m 21,9 km/h (4 Bft) 96,96 %
04.12.2020 15:00 7,7 C 7,1 C 6,8 C 83 % 986,6 hPa 0,0 l/m 0,00 h 0,00 h 26 W/m 19,6 km/h (3 Bft) 97,44 %
04.12.2020 16:00 7,3 C 6,7 C 6,2 C 82 % 987,5 hPa 0,0 l/m 0,00 h 0,00 h 8 W/m 22,7 km/h (4 Bft) 99,04 %
04.12.2020 17:00 6,9 C 6,1 C 5,8 C 84 % 988,4 hPa 0,0 l/m 0,00 h 0,00 h 0 W/m 17,9 km/h (3 Bft) 96,21 %
04.12.2020 18:00 6,3 C 5,4 C 5,2 C 86 % 989,2 hPa 0,0 l/m 0,00 h 0,00 h 0 W/m 7,3 km/h (2 Bft) 97,51 %
04.12.2020 19:00 5,7 C 4,3 C 4,3 C 88 % 989,8 hPa 0,0 l/m 0,00 h 0,00 h 0 W/m 0,4 km/h (0 Bft) 96,65 %
04.12.2020 20:00 4,7 C 3,3 C 3,4 C 88 % 990,4 hPa 0,0 l/m 0,00 h 0,00 h 0 W/m 0,0 km/h (0 Bft) 96,88 %
04.12.2020 21:00 4,2 C 3,2 C 3,3 C 91 % 990,8 hPa 0,0 l/m 0,00 h 0,00 h 0 W/m 0,0 km/h (0 Bft) 98,12 %
04.12.2020 22:00 3,5 C 1,8 C 2,2 C 91 % 990,9 hPa 0,0 l/m 0,00 h 0,00 h 0 W/m 0,0 km/h (0 Bft) 97,87 %
04.12.2020 23:00 2,5 C 0,7 C 1,2 C 91 % 991,1 hPa 0,0 l/m 0,00 h 0,00 h 0 W/m 0,0 km/h (0 Bft) 95,51 %
05.12.2020 00:00 1,5 C 0,2 C 0,9 C 91 % 991,7 hPa 0,0 l/m 0,00 h 0,00 h 0 W/m 0,0 km/h (0 Bft) 96,45 %
05.12.2020 01:00 1,1 C 0,4 C 1,1 C 93 % 992,1 hPa 0,0 l/m 0,00 h 0,00 h 0 W/m 0,0 km/h (0 Bft) 97,01 %
05.12.2020 02:00 1,1 C 0,6 C 1,1 C 94 % 992,3 hPa 0,0 l/m 0,00 h 0,00 h 0 W/m 0,0 km/h (0 Bft) 95,35 %
05.12.2020 03:00 1,2 C 0,6 C 1,1 C 95 % 992,8 hPa 0,0 l/m 0,00 h 0,00 h 0 W/m 0,0 km/h (0 Bft) 98,65 %
05.12.2020 04:00 1,1 C 0,4 C 1,1 C 95 % 993,0 hPa 0,0 l/m 0,00 h 0,00 h 0 W/m 0,0 km/h (0 Bft) 99,43 %
05.12.2020 05:00 1,1 C 1,0 C 1,7 C 96 % 993,5 hPa 0,0 l/m 0,00 h 0,00 h 0 W/m 0,0 km/h (0 Bft) 96,44 %
05.12.2020 06:00 1,9 C 1,5 C 2,1 C 97 % 993,9 hPa 0,0 l/m 0,00 h 0,00 h 0 W/m 1,7 km/h (1 Bft) 99,60 %
05.12.2020 07:00 1,9 C 1,2 C 1,9 C 97 % 994,9 hPa 0,0 l/m 0,00 h 0,00 h 0 W/m 7,4 km/h (2 Bft) 97,22 %
05.12.2020 08:00 1,8 C 1,3 C 1,9 C 97 % 995,9 hPa 0,0 l/m 0,00 h 0,00 h 12 W/m 3,4 km/h (1 Bft) 96,26 %
05.12.2020 09:00 1,9 C 1,9 C 1,7 C 98 % 997,0 hPa 0,0 l/m 0,00 h 0,00 h 27 W/m 1,3 km/h (1 Bft) 96,55 %
05.12.2020 10:00 2,8 C 3,4 C 2,8 C 98 % 997,6 hPa 0,0 l/m 0,00 h 0,00 h 22 W/m 6,2 km/h (2 Bft) 96,52 %
05.12.2020 11:00 4,5 C 8,9 C 5,5 C 98 % 998,0 hPa 0,2 l/m 0,83 h 0,00 h 227 W/m 13,4 km/h (3 Bft) 97,50 %
05.12.2020 12:00 6,8 C 10,2 C 9,6 C 80 % 998,2 hPa 0,0 l/m 1,00 h 0,00 h 297 W/m 22,5 km/h (4 Bft) 97,94 %
05.12.2020 13:00 7,5 C 10,3 C 8,4 C 72 % 998,6 hPa 0,0 l/m 1,00 h 0,00 h 281 W/m 23,3 km/h (4 Bft) 98,15 %
05.12.2020 14:00 7,7 C 10,3 C 7,1 C 70 % 999,2 hPa 0,0 l/m 1,00 h 0,00 h 195 W/m 18,1 km/h (3 Bft) 95,94 %
05.12.2020 15:00 7,1 C 7,4 C 3,3 C 72 % 999,7 hPa 0,0 l/m 0,47 h 0,00 h 58 W/m 10,5 km/h (2 Bft) 97,87 %
05.12.2020 16:00 5,8 C 4,6 C 1,8 C 76 % 999,8 hPa 0,0 l/m 0,00 h 0,00 h 9 W/m 6,6 km/h (2 Bft) 97,18 %
05.12.2020 17:00 4,5 C 2,8 C 0,1 C 79 % 1000,2 hPa 0,0 l/m 0,00 h 0,00 h 0 W/m 0,3 km/h (0 Bft) 97,16 %
05.12.2020 18:00 3,2 C 2,2 C -0,2 C 84 % 1000,7 hPa 0,0 l/m 0,00 h 0,00 h 0 W/m 1,3 km/h (1 Bft) 96,16 %
05.12.2020 19:00 3,1 C 2,6 C 0,5 C 88 % 1001,2 hPa 0,0 l/m 0,00 h 0,00 h 0 W/m 2,2 km/h (1 Bft) 97,37 %
05.12.2020 20:00 3,3 C 2,7 C 1,0 C 90 % 1001,3 hPa 0,0 l/m 0,00 h 0,00 h 0 W/m 0,3 km/h (0 Bft) 97,86 %
05.12.2020 21:00 2,8 C 1,3 C -0,3 C 90 % 1001,4 hPa 0,0 l/m 0,00 h 0,00 h 0 W/m 0,0 km/h (0 Bft) 97,58 %
05.12.2020 22:00 1,6 C 0,2 C -1,2 C 90 % 1001,7 hPa 0,0 l/m 0,00 h 0,00 h 0 W/m 0,0 km/h (0 Bft) 97,95 %
05.12.2020 23:00 1,7 C 1,4 C -0,1 C 93 % 1002,0 hPa 0,0 l/m 0,00 h 0,00 h 0 W/m 0,3 km/h (0 Bft) 97,31 %
06.12.2020 00:00 1,7 C 1,1 C -0,2 C 94 % 1002,1 hPa 0,0 l/m 0,00 h 0,00 h 0 W/m 0,0 km/h (0 Bft) 94,20 %
06.12.2020 01:00 1,5 C 0,7 C -0,3 C 94 % 1001,4 hPa 0,0 l/m 0,00 h 0,00 h 0 W/m 0,0 km/h (0 Bft) 95,77 %
06.12.2020 02:00 1,2 C 0,5 C -0,5 C 94 % 1001,2 hPa 0,0 l/m 0,00 h 0,00 h 0 W/m 0,0 km/h (0 Bft) 97,87 %
06.12.2020 03:00 0,9 C 0,5 C -0,5 C 95 % 1001,3 hPa 0,0 l/m 0,00 h 0,00 h 0 W/m 0,0 km/h (0 Bft) 96,59 %
06.12.2020 04:00 0,9 C 0,6 C -0,4 C 95 % 1001,5 hPa 0,0 l/m 0,00 h 0,00 h 0 W/m 0,2 km/h (0 Bft) 99,36 %
06.12.2020 05:00 1,0 C 0,7 C -0,1 C 95 % 1001,0 hPa 0,0 l/m 0,00 h 0,00 h 0 W/m 0,0 km/h (0 Bft) 96,80 %
06.12.2020 06:00 1,0 C 0,7 C -0,1 C 96 % 1000,9 hPa 0,0 l/m 0,00 h 0,00 h 0 W/m 0,0 km/h (0 Bft) 93,94 %
06.12.2020 07:00 1,2 C 1,1 C 0,4 C 96 % 1000,9 hPa 0,0 l/m 0,00 h 0,00 h 0 W/m 0,2 km/h (0 Bft) 98,58 %
06.12.2020 08:00 1,6 C 1,3 C 0,7 C 96 % 1000,5 hPa 0,0 l/m 0,00 h 0,00 h 5 W/m 0,2 km/h (0 Bft) 96,09 %
06.12.2020 09:00 1,9 C 1,9 C 1,1 C 97 % 1001,0 hPa 0,0 l/m 0,00 h 0,00 h 18 W/m 0,2 km/h (0 Bft) 98,23 %
06.12.2020 10:00 2,5 C 3,2 C 2,5 C 97 % 1000,8 hPa 0,0 l/m 0,00 h 0,17 h 64 W/m 1,6 km/h (1 Bft) 97,93 %
06.12.2020 11:00 3,5 C 4,3 C 3,4 C 97 % 1000,6 hPa 0,0 l/m 0,00 h 0,00 h 71 W/m 0,0 km/h (0 Bft) 95,73 %
06.12.2020 12:00 4,3 C 4,4 C 3,7 C 97 % 1000,3 hPa 0,0 l/m 0,00 h 0,00 h 51 W/m 5,8 km/h (2 Bft) 97,71 %
06.12.2020 13:00 4,3 C 3,8 C 3,2 C 95 % 1000,1 hPa 0,0 l/m 0,00 h 0,00 h 29 W/m 13,2 km/h (3 Bft) 97,21 %
06.12.2020 14:00 3,8 C 3,3 C 2,8 C 95 % 1000,1 hPa 0,0 l/m 0,00 h 0,00 h 12 W/m 15,7 km/h (3 Bft) 98,01 %
06.12.2020 15:00 3,5 C 2,9 C 2,3 C 96 % 999,8 hPa 0,0 l/m 0,00 h 0,00 h 10 W/m 12,1 km/h (2 Bft) 98,01 %
06.12.2020 16:00 3,4 C 2,8 C 2,3 C 96 % 999,8 hPa 0,2 l/m 0,00 h 0,63 h 0 W/m 11,2 km/h (2 Bft) 95,37 %
06.12.2020 17:00 3,4 C 2,8 C 2,3 C 97 % 1000,1 hPa 0,2 l/m 0,00 h 0,00 h 0 W/m 4,9 km/h (1 Bft) 95,50 %
06.12.2020 18:00 3,5 C 2,8 C 2,5 C 98 % 1000,4 hPa 0,0 l/m 0,00 h 0,33 h 0 W/m 4,9 km/h (1 Bft) 98,55 %
06.12.2020 19:00 3,5 C 2,8 C 2,8 C 98 % 999,9 hPa 0,2 l/m 0,00 h 0,03 h 0 W/m 4,6 km/h (1 Bft) 97,80 %
06.12.2020 20:00 3,5 C 2,8 C 2,8 C 98 % 999,5 hPa 0,0 l/m 0,00 h 0,00 h 0 W/m 2,8 km/h (1 Bft) 97,20 %
06.12.2020 21:00 3,5 C 2,8 C 2,8 C 98 % 998,9 hPa 0,0 l/m 0,00 h 0,00 h 0 W/m 4,7 km/h (1 Bft) 97,79 %
06.12.2020 22:00 3,7 C 3,2 C 3,1 C 99 % 998,8 hPa 0,0 l/m 0,00 h 0,33 h 0 W/m 3,3 km/h (1 Bft) 96,54 %
06.12.2020 23:00 3,7 C 3,2 C 3,4 C 99 % 998,3 hPa 0,2 l/m 0,00 h 0,43 h 0 W/m 1,8 km/h (1 Bft) 97,56 %
Min-Datum _ 30.11.20 30.11.20 30.11.20 05.12.20 04.12.20 - - - - 30.11.20 04.12.20
_ Min-Zeit 00:44 00:00 00:00 14:38 05:04 - - - - 00:00 00:02
Minimum _ -3,2 C -3,9 C -4,4 C 69 % 981,9 hPa - - - - 0,0 km/h (0 Bft) 14,29 %
Max-Datum _ 04.12.20 05.12.20 04.12.20 01.12.20 30.11.20 01.12.20 05.12.20 30.11.20 04.12.20 30.11.20 30.11.20
_ Max-Zeit 12:58 12:34 12:52 07:56 00:00 00:12 12:08 18:08 12:18 22:56 00:12
Maximum _ 8,4 C 11,7 C 11,1 C 100 % 1028,0 hPa 2,2 l/m 0,07 h 0,07 h 313 W/m 57,9 km/h
S-SO (7 Bft)
100,00 %
Durchschnitt _ 4,0 C 3,5 C 3,7 C 95 % 1005,5 hPa #19,2 l/m #5:14 h #25:24 h 48 W/m 9,2 km/h (2 Bft) 97,18 %
© 2020 W. Hausmann